Content
SEND FEEDBACK

Daily
Averages
Monthly
Summary
United States of America

WAHWEAP, ARIZONA


Home > North America > United States > Arizona
Elevation: 3703 feet     Latitude: 36 59N     Longitude: 111 29W

WEATHER
 
SELECT A DAY
Number of Records: 198,615;   Date Range: 1/1/95 - 12/26/14
 
SHARE

PRINT THIS DATA

[ ← Previous Day ]
WEATHER ALMANAC - JUNE 24, 2013
[ Next Day → ]
[ °C ]   °F
We're sorry. There is no daily almanac available for Wahweap, Arizona on June 24, 2013.
WEATHER BY HOUR - JUNE 24, 2013
[ °C ]   °F
Local TimeTemperatureDewpointHumidityBarometerVisibilityWind DirectionWind SpeedGust SpeedPrecipitationEventsConditions
1:53 AM78.1 °F19.9 °F11 %29.59 in10.0 miSouth (190°)4.6 mphClear
2:53 AM75.9 °F21.0 °F13 %29.59 in10.0 miSouth (180°)4.6 mphClear
3:53 AM75.0 °F23.0 °F14 %29.60 in10.0 miSouth (180°)6.9 mphClear
4:53 AM72.0 °F24.1 °F17 %29.62 in10.0 miSouth (170°)9.2 mphClear
5:53 AM75.9 °F27.0 °F16 %29.62 in10.0 miSouth (170°)6.9 mphClear
6:53 AM75.9 °F28.0 °F17 %29.65 in10.0 miEast (80°)4.6 mphClear
7:53 AM78.1 °F28.0 °F16 %29.67 in10.0 miSouth (180°)9.2 mphClear
8:53 AM82.0 °F28.0 °F14 %29.67 in10.0 miWSW (240°)12.7 mph23.0 mphClear
9:53 AM84.0 °F27.0 °F13 %29.67 in10.0 miWSW (240°)10.4 mph18.4 mphClear
10:53 AM86.0 °F25.0 °F11 %29.67 in10.0 miSW (230°)8.1 mph19.6 mphClear
11:53 AM87.1 °F25.0 °F10 %29.66 in10.0 miSW (230°)9.2 mph20.7 mphClear
12:53 PM87.1 °F23.0 °F10 %29.63 in10.0 miVariable6.9 mph25.3 mphClear
1:53 PM88.0 °F21.9 °F9 %29.63 in10.0 miSouth (180°)13.8 mph24.2 mphClear
2:53 PM88.0 °F21.0 °F9 %29.63 in10.0 miSW (220°)9.2 mph20.7 mphClear
3:53 PM90.0 °F19.0 °F7 %29.62 in10.0 miSSW (200°)16.1 mph24.2 mphClear
4:53 PM89.1 °F17.1 °F7 %29.62 in10.0 miSW (220°)16.1 mph25.3 mphClear
5:53 PM89.1 °F18.0 °F7 %29.61 in10.0 miSW (220°)9.2 mph18.4 mphClear
6:53 PM87.1 °F16.0 °F7 %29.62 in10.0 miWSW (240°)9.2 mph19.6 mphClear
7:53 PM84.9 °F10.0 °F6 %29.64 in10.0 miSW (230°)8.1 mphClear
8:53 PM82.9 °F10.9 °F7 %29.67 in10.0 miWSW (250°)4.6 mphClear
9:53 PM81.0 °F10.9 °F7 %29.69 in10.0 miWSW (240°)8.1 mphClear
10:53 PM80.1 °F12.9 °F8 %29.71 in10.0 miVariable6.9 mphClear
11:53 PM79.0 °F14.0 °F9 %29.73 in10.0 miWSW (240°)3.5 mphClear
Hourly data recorded from KPGA, located miles away from Wahweap, Arizona







STORIES FROM OUR PARTNERS